Volver al catálogo

STARLINK-30409

ActivoComunicacionesVLEO
NORAD 57820·PAYLOAD·🇺🇸 United States

Lanzado Sep 9, 2023 desde Cape Canaveral Space Force Station

Loading…

Próximos Pases (próximas 24 horas)

TLE

ActualizadoSource: CelesTrak SupGP

Época: Sep 15, 2026, 03:18 UTC

1 57820C 23138N   26258.13798611 -.00022338  00000+0 -80854-3 0  2583
2 57820  43.0005 244.0855 0001129 261.9979 111.1456 15.27612042    10

Sigue STARLINK-30409 en tiempo real con AllMySat

Download on the App Store